This is the latest recevied weather packets stored in our database for station/object KD9CCP. If no packets are shown the sender has not sent any weather packets the latest 10 day(s).
| Time | Temp. | Humidity | Pressure | Rain* | Wind** | Luminosity | Snow |
|---|---|---|---|---|---|---|---|
| 1778087654 | 3.89° C | 57% | 1014.9 hPa | 0 mm | - | 98 W/m² | - |
| 1778087353 | 3.33° C | 56% | 1015.2 hPa | 0 mm | - | 86 W/m² | - |
| 1778087048 | 3.33° C | 57% | 1015.2 hPa | 0 mm | - | 98 W/m² | - |
| 1778086747 | 3.33° C | 56% | 1015 hPa | 0 mm | - | 96 W/m² | - |
| 1778086445 | 3.33° C | 56% | 1015 hPa | 0 mm | - | 101 W/m² | - |
| 1778086141 | 3.33° C | 59% | 1015.3 hPa | 0 mm | - | 94 W/m² | - |
| 1778085837 | 2.78° C | 60% | 1015.2 hPa | 0 mm | - | 117 W/m² | - |
| 1778085536 | 2.78° C | 64% | 1015.4 hPa | 0 mm | - | 93 W/m² | - |
| 1778085230 | 2.78° C | 62% | 1015.4 hPa | 0 mm | - | 89 W/m² | - |
| 1778084925 | 2.78° C | 62% | 1015.3 hPa | 0 mm | - | 95 W/m² | - |
| 1778084624 | 2.22° C | 67% | 1015 hPa | 0 mm | - | 84 W/m² | - |
| 1778084321 | 2.22° C | 66% | 1015.3 hPa | 0 mm | - | 75 W/m² | - |
| 1778084018 | 1.67° C | 70% | 1015.2 hPa | 0 mm | - | 89 W/m² | - |
| 1778083716 | 1.67° C | 71% | 1015.3 hPa | 0 mm | - | 50 W/m² | - |
| 1778083412 | 1.67° C | 73% | 1015.5 hPa | 0 mm | - | 55 W/m² | - |
| 1778083111 | 1.67° C | 70% | 1015.3 hPa | 0 mm | - | 55 W/m² | - |
| 1778082807 | 1.11° C | 71% | 1015.4 hPa | 0 mm | - | 42 W/m² | - |
| 1778081685 | 1.67° C | 72% | 1015.3 hPa | 0 mm | - | 41 W/m² | - |
| 1778081383 | 1.67° C | 71% | 1015 hPa | 0 mm | - | 56 W/m² | - |
| 1778081079 | 1.67° C | 78% | 1015.2 hPa | 0 mm | - | 58 W/m² | - |
| 1778080778 | 1.11° C | 76% | 1014.9 hPa | 0 mm | - | 59 W/m² | - |
| 1778080475 | 1.11° C | 77% | 1014.9 hPa | 0 mm | - | 45 W/m² | - |
| 1778080172 | 0.56° C | 75% | 1014.8 hPa | 0 mm | - | 37 W/m² | - |
| 1778079868 | 0.56° C | 76% | 1014.8 hPa | 0 mm | - | 32 W/m² | - |
| 1778079565 | 0.56° C | 76% | 1014.9 hPa | 0 mm | - | 29 W/m² | - |
* Rain latest hour (hover to see other rain measurements)
** Current wind speed in m/s (hover to see current wind gust speed)